TimeEST,TemperatureF,Dew PointF,Humidity,Sea Level PressureIn,VisibilityMPH,Wind Direction,Wind SpeedMPH,Gust SpeedMPH,PrecipitationIn,Events,Conditions,WindDirDegrees,DateUTC
12:33 AM,37.4,35.6,93,29.57,6.0,NNE,23.0,31.1,0.00,Rain,Light Rain,20,2013-02-17 05:33:00
12:53 AM,37.0,34.0,89,29.56,5.0,NNE,20.7,33.4,0.00,,Overcast,20,2013-02-17 05:53:00
1:32 AM,37.4,33.8,87,29.53,7.0,North,27.6,34.5,0.00,,Overcast,10,2013-02-17 06:32:00
1:39 AM,37.4,33.8,87,29.52,10.0,North,27.6,34.5,0.00,,Overcast,10,2013-02-17 06:39:00
1:53 AM,37.0,33.1,86,29.49,10.0,North,27.6,35.7,0.00,,Overcast,10,2013-02-17 06:53:00
2:53 AM,36.0,33.1,89,29.46,4.0,North,26.5,35.7,0.01,Snow,Light Snow,10,2013-02-17 07:53:00
3:17 AM,35.6,33.8,93,29.43,5.0,North,27.6,38.0,0.00,Snow,Light Snow,360,2013-02-17 08:17:00
3:53 AM,35.1,32.0,89,29.40,3.0,North,28.8,42.6,0.00,Snow,Light Snow,360,2013-02-17 08:53:00
4:22 AM,33.8,32.0,93,29.37,2.5,North,29.9,40.3,0.00,Snow,Light Snow,360,2013-02-17 09:22:00
4:39 AM,33.8,30.2,87,29.36,1.5,North,27.6,38.0,0.00,Snow,Light Snow,360,2013-02-17 09:39:00
4:53 AM,33.1,30.9,92,29.35,1.0,North,32.2,42.6,0.00,Snow,Light Snow,360,2013-02-17 09:53:00
5:35 AM,33.8,30.2,87,29.31,2.5,North,33.4,46.0,0.00,Snow,Light Snow,360,2013-02-17 10:35:00
5:45 AM,32.0,28.4,87,29.30,1.8,North,36.8,46.0,0.00,Snow,Light Snow,360,2013-02-17 10:45:00
5:53 AM,32.0,28.9,88,29.30,1.0,North,38.0,48.3,0.00,Snow,Light Snow,350,2013-02-17 10:53:00
6:31 AM,30.2,28.4,93,29.29,1.8,North,29.9,46.0,0.00,Snow,Light Snow,350,2013-02-17 11:31:00
6:53 AM,30.0,27.0,88,29.28,1.0,NNW,39.1,54.1,0.00,Snow,Light Snow,340,2013-02-17 11:53:00
7:53 AM,28.9,25.0,85,29.25,1.2,NNW,39.1,57.5,0.00,Snow,Light Snow,340,2013-02-17 12:53:00
8:53 AM,27.0,23.0,85,29.24,1.5,NNW,31.1,49.5,0.00,Snow,Light Snow,330,2013-02-17 13:53:00
9:07 AM,26.6,23.0,86,29.23,0.5,NW,33.4,48.3,0.00,Fog-Snow,Snow,320,2013-02-17 14:07:00
9:28 AM,26.6,21.2,80,29.24,0.2,NW,36.8,50.6,0.00,Fog-Snow,Snow,320,2013-02-17 14:28:00
9:36 AM,26.6,21.2,80,29.25,0.2,NW,31.1,47.2,0.00,Fog-Snow,Snow,320,2013-02-17 14:36:00
9:53 AM,25.0,21.9,88,29.26,0.2,NW,26.5,42.6,0.00,Fog-Snow,Snow,310,2013-02-17 14:53:00
10:07 AM,24.8,21.2,86,29.27,0.2,NW,27.6,39.1,0.00,Fog-Snow,Heavy Snow,310,2013-02-17 15:07:00
10:33 AM,24.8,21.2,86,29.29,0.2,NW,27.6,43.7,0.00,Fog-Snow,Heavy Snow,310,2013-02-17 15:33:00
10:53 AM,24.1,21.9,91,29.30,0.2,WNW,24.2,35.7,0.00,Fog-Snow,Heavy Snow,300,2013-02-17 15:53:00
11:53 AM,24.1,21.0,88,29.31,0.2,WNW,29.9,39.1,0.00,Fog-Snow,Heavy Snow,300,2013-02-17 16:53:00
12:18 PM,23.0,19.4,86,29.31,0.2,WNW,24.2,36.8,0.00,Fog-Snow,Heavy Snow,300,2013-02-17 17:18:00
12:53 PM,24.1,21.0,88,29.32,0.2,WNW,26.5,36.8,0.00,Fog-Snow,Heavy Snow,290,2013-02-17 17:53:00
1:23 PM,24.8,19.4,80,29.33,0.2,WNW,25.3,41.4,N/A,Fog-Snow,Heavy Snow,290,2013-02-17 18:23:00
1:32 PM,24.8,19.4,80,29.33,0.5,WNW,26.5,42.6,N/A,Fog-Snow,Heavy Snow,290,2013-02-17 18:32:00
1:51 PM,24.8,19.4,80,29.34,0.8,West,26.5,39.1,N/A,Fog-Snow,Snow,280,2013-02-17 18:51:00
1:53 PM,24.1,19.9,84,29.35,0.8,West,28.8,38.0,N/A,Fog-Snow,Snow,280,2013-02-17 18:53:00
2:10 PM,24.8,17.6,74,29.35,1.0,West,29.9,42.6,N/A,Snow,Light Snow,280,2013-02-17 19:10:00
2:53 PM,23.0,16.0,74,29.38,1.0,West,33.4,44.9,N/A,Snow,Light Snow,280,2013-02-17 19:53:00
3:32 PM,24.8,15.8,69,29.40,4.0,WNW,27.6,43.7,N/A,Snow,Blowing Snow,290,2013-02-17 20:32:00
3:48 PM,24.8,15.8,69,29.41,4.0,WNW,36.8,47.2,N/A,Snow,Blowing Snow,290,2013-02-17 20:48:00
3:53 PM,24.1,15.1,69,29.41,6.0,WNW,33.4,48.3,N/A,Snow,Blowing Snow,290,2013-02-17 20:53:00
4:53 PM,26.1,12.9,58,29.45,6.0,WNW,27.6,42.6,N/A,,Mostly Cloudy,290,2013-02-17 21:53:00
5:53 PM,26.1,9.0,49,29.49,10.0,WNW,29.9,38.0,N/A,,Mostly Cloudy,290,2013-02-17 22:53:00
6:53 PM,26.1,10.9,53,29.52,4.0,West,26.5,38.0,N/A,,Mostly Cloudy,280,2013-02-17 23:53:00
7:53 PM,25.0,9.0,51,29.54,4.0,West,32.2,42.6,N/A,Snow,Blowing Snow,280,2013-02-18 00:53:00
8:53 PM,24.1,9.0,53,29.57,7.0,West,28.8,41.4,N/A,,Mostly Cloudy,280,2013-02-18 01:53:00
9:53 PM,23.0,7.0,50,29.61,6.0,West,28.8,40.3,N/A,Snow,Blowing Snow,280,2013-02-18 02:53:00
10:53 PM,21.9,6.1,51,29.62,9.0,West,29.9,38.0,N/A,,Overcast,280,2013-02-18 03:53:00